Flag for Slovakia Weather past 2 weeks in Košice, Slovakia

Now
54 °F

Passing clouds.


Feels Like: 54 °F
Forecast: 59 / 75 °F
Wind: 1 mph from North

Location: Kosice - Barca

Current Time: Aug 30, 2014 at 3:09:19 AM

Latest Report: Aug 30, 2014 at 2:30 AM


Visibility: N/A

Pressure: 30.09 "Hg

Humidity: 88%

Dew point: 50 °F

Location of KošiceLocation

Historic Weather in Košice — Graph

°F

Košice temperature yesterday

Maximum temperature yesterday: 72 °F (at 2:30 PM)
Minimum temperature yesterday: 50 °F (at 3:00 AM)
Average temperature yesterday: 61 °F

Past Weeks' High & Low Weather Summary

 TemperatureHumidityPressure
High77 °F (Aug 19, 1:30 PM)100% (Aug 16, 3:30 AM)30.15 "Hg (Aug 16, 3:30 AM)
Low45 °F (Aug 22, 5:30 AM)31% (Aug 22, 1:30 PM)29.74 "Hg (Aug 27, 4:00 AM)
Average61 °F77%29.96 "Hg
* Reported Aug 15 1:00 AM — Aug 30 1:30 AM, Košice, Weather by CustomWeather, © 2014

Note: Actual official high and low records may vary slightly from our data, if they occured in-between our weather recording intervals... More about our weather records

Advertising

Košice weather history for previous 24 hours

 ConditionsComfort  
Time TempWeatherWind HumidityBarometerVisibility
1:30 AM
Aug 30
54 °FClear.1 mph88%30.09 "Hg10 mi
1:00 AM54 °FClear.3 mph94%30.09 "Hg10 mi
12:30 AM54 °FClear.1 mph88%30.09 "Hg10 mi
12:00 AM54 °FClear.2 mph88%30.09 "Hg10 mi
11:30 PM
Aug 29
55 °FClear.2 mph82%30.09 "Hg10 mi
11:00 PM55 °FClear.1 mph82%30.09 "Hg10 mi
9:00 PM59 °FClear.2 mph77%30.09 "Hg10 mi
8:30 PM59 °FClear.3 mph77%30.09 "Hg10 mi
8:00 PM59 °FSunny.2 mph77%30.09 "Hg10 mi
7:30 PM63 °FSunny.2 mph68%30.09 "Hg10 mi
7:00 PM66 °FPassing clouds.6 mph56%30.09 "HgN/A
6:30 PM68 °FSunny.8 mph49%30.09 "Hg10 mi
6:00 PM70 °FSunny.8 mph46%30.09 "Hg10 mi
5:30 PM70 °FPassing clouds.8 mph43%30.09 "HgN/A
5:00 PM72 °FPassing clouds.9 mph38%30.09 "HgN/A
4:30 PM72 °FPassing clouds.9 mph38%30.09 "HgN/A
4:00 PM72 °FPassing clouds.9 mph36%30.09 "HgN/A
3:30 PM72 °FPassing clouds.6 mph33%30.09 "HgN/A
3:00 PM72 °FPassing clouds.9 mph41%30.12 "HgN/A
2:30 PM72 °FPassing clouds.9 mph41%30.12 "HgN/A
2:00 PM70 °FPassing clouds.7 mph43%30.12 "HgN/A
1:30 PM70 °FPassing clouds.7 mph50%30.12 "HgN/A
1:00 PM68 °FPassing clouds.7 mph53%30.12 "HgN/A
12:30 PM70 °FPassing clouds.8 mph53%30.12 "HgN/A
12:00 PM68 °FPassing clouds.7 mph56%30.15 "HgN/A
11:30 AM68 °FPassing clouds.6 mph56%30.15 "HgN/A
11:00 AM66 °FPassing clouds.6 mph64%30.15 "HgN/A
10:30 AM66 °FPassing clouds.5 mph56%30.15 "HgN/A
10:00 AM64 °FSunny.2 mph60%30.15 "Hg10 mi
9:30 AM63 °FPassing clouds.3 mph64%30.15 "HgN/A
9:00 AM61 °FPassing clouds.5 mph72%30.15 "HgN/A
8:30 AM59 °FSunny.6 mph72%30.15 "Hg10 mi
8:00 AM55 °FPassing clouds.7 mph82%30.15 "HgN/A
7:30 AM54 °FSunny.8 mph82%30.15 "Hg10 mi
7:00 AM52 °FSunny.3 mph88%30.15 "Hg10 mi
6:30 AM50 °FClear.3 mph94%30.15 "Hg10 mi
6:00 AM50 °FClear.7 mph88%30.12 "Hg10 mi
5:30 AM50 °FClear.2 mph94%30.12 "Hg10 mi
5:00 AM50 °FClear.5 mph94%30.12 "Hg10 mi
4:30 AM50 °FClear.2 mph94%30.12 "Hg10 mi
4:00 AM50 °FClear.2 mph94%30.12 "Hg10 mi
3:30 AM50 °FClear.3 mph94%30.12 "Hg10 mi
3:00 AM50 °FClear.5 mph94%30.12 "Hg10 mi
Weather by CustomWeather, © 2014

See weather overviewHow to use our weather pages